Regional Weather Roundup
Issued by NWS

Home | Current Version | Previous Version | Text Only | Print | Product List | Glossary On
Versions: 1 2 3 4 5 6 7 8 9 10 11 12 13 14 15 16 17 18 19 20 21 22 23 24 25 26 27 28 29 30 31 32 33 34 35 36 37 38 39 40 41 42 43 44 45 46 47 48 49 50
000
ASUS44 KJAN 210110
RWRMS

MISSISSIPPI HOURLY WEATHER ROUNDUP
NATIONAL WEATHER SERVICE JACKSON MS
700 PM CST MON FEB 20 2017

NOTE: "FAIR: INDICATES FEW OR NO CLOUDS BELOW 12,000 FEET WITH NO
SIGNIFICANT WEATHER AND/OR OBSTRUCTIONS TO VISIBILITY.

MSZ001>002-007>008-010>013-018>021-025>028-034>036-210200-
NORTHWEST MISSISSIPPI

CITY           SKY/WX    TMP DP  RH WIND       PRES   REMARKS
BATESVILLE     FAIR      69  54  60 E3        29.96F
CLEVELAND      FAIR      70  54  56 SE6       29.90F
GREENWOOD      CLOUDY    74  48  39 SE9       29.92F
GREENVILLE     CLOUDY    73  56  54 SE8       29.88F
OLIVE BRANCH   MOCLDY   N/A N/A N/A CALM      29.96F
OXFORD         FAIR      68  52  56 SE8       29.98F
TUNICA         PTCLDY    64  54  68 SE6       29.95S
WINONA         FAIR      71  53  52 SE3       29.95S
$$

MSZ003>006-009-014>017-022>024-029>033-037>039-210200-
NORTHEAST MISSISSIPPI

CITY           SKY/WX    TMP DP  RH WIND       PRES   REMARKS
COLUMBUS AFB   CLOUDY    64  51  61 E10       29.99F
CORINTH        FAIR      64  48  55 SE8       29.99F
TUPELO         CLEAR     67  48  50 E8        29.99F
$$

MSZ040-058-210200-
CENTRAL MISSISSIPPI

CITY           SKY/WX    TMP DP  RH WIND       PRES   REMARKS
JACKSON INTL   CLOUDY    73  55  53 SE10      29.94F
JACKSON HAWKNS NOT AVBL
MADISON        FAIR     N/A N/A N/A SE3       29.94S
MERIDIAN KEY   MOCLDY    69  56  62 CALM      30.00F
MERIDIAN NAS   NOT AVBL
VICKSBURG VKS  CLOUDY    75  57  53 SE8G15    29.87F
$$

MSZ059>079-210200-
SOUTH MISSISSIPPI

CITY           SKY/WX    TMP DP  RH WIND       PRES   REMARKS
BROOKHAVEN     MOCLDY    73  57  56 SE9       29.97R
COLUMBIA       FAIR      72 -36   1 SE10      30.00F
HATTIESBURG    MOCLDY    68  51  54 SE7       30.01S
LAUREL         FAIR      71  52  52 SE3       30.01S
MCCOMB         CLOUDY    72  61  68 SE13      29.95S
NATCHEZ        CLOUDY    73  63  68 SE15G22   29.89F
PINE BELT      CLOUDY    70  48  46 SE6       30.02S
$$

MSZ080>082-210200-
COASTAL MISSISSIPPI

CITY           SKY/WX    TMP DP  RH WIND       PRES   REMARKS
BAY ST LOUIS   MOCLDY    66  63  88 E9        30.00F
BILOXI         CLOUDY    69  65  89 SE14      30.02S
PASCAGOULA     CLOUDY    68  64  87 SE8       30.04S
GULFPORT       CLOUDY    69  66  90 SE16      30.01F
$$

LAZ007>009-015>016-023>026-210200-
NORTHEAST LOUISIANA

CITY           SKY/WX    TMP DP  RH WIND       PRES   REMARKS
BASTROP        HVY RAIN  62  61  98 W17       29.93R
TALLULAH/VBURG PTCLDY    74  57  55 SE14      29.89F
VIDALIA        LGT RAIN  72  64  75 W23G29    29.89R
$$



USA.gov is the U.S. government's official web portal to all federal, state and local government web resources and services.